Location: Bailey Volunteer Fire Department
(33.4359°N, 96.1680°W)
Time: 17:59:35
(UTC+00:00)

Cosmos 1833 - Pass Details

Date: 13 December 2025
Orbit: 832 x 866 km, 70.9° (Epoch: 14 January)

Event Time Altitude Azimuth Distance (km) Brightness Sun altitude
Rises 11:57:43 0° 214° (SW) 3,367 7.2 -16.7°
Reaches altitude 10° 12:00:13 10° 220° (SW) 2,440 6.4 -16.2°
Maximum altitude 12:05:37 49° 294° (WNW) 1,075 4.3 -15.2°
Drops below altitude 10° 12:11:06 10° 9° (N) 2,473 6.5 -14.1°
Sets 12:13:40 0° 15° (NNE) 3,418 7.3 -13.6°
